Location: Asheville, NC
(35.6000°N, 82.5500°W)
Time: 06:58:27
(UTC-05:00)

Vanguard 2 - Pass Details

Date: 17 February 2018
Orbit: 553 x 2939 km, 32.9° (Epoch: 18 February)

Event Time Altitude Azimuth Distance (km) Brightness Sun altitude
Rises 19:02:43 0° 245° (WSW) 5,277 13.4 -10.5°
Reaches altitude 10° 19:06:54 10° 242° (WSW) 3,878 12.3 -11.4°
Maximum altitude 19:15:57 55° 168° (SSE) 1,293 8.6 -13.2°
Enters shadow 19:20:06 19° 97° (E) 1,951 9.0 -14.0°
Drops below altitude 10° 19:21:27 10° 91° (E) 2,401 - -14.3°
Sets 19:23:30 0° 87° (E) 3,149 - -14.7°
